| time (UTC) | temp F | wind direction | speed MPH | gust MPH | rain 1hr in | rain 24hr in | rain mn in | humidity % | barometer mb |
| 20260904083524 | 69 | 0 | 0.0 | 0.0 | 0.00 | 0.02 | 0.00 | 99 | 1014.3 |
| 20260904083004 | 69 | 0 | 0.0 | 0.0 | 0.00 | 0.02 | 0.00 | 99 | 1014.4 |
| 20260904082503 | 69 | 0 | 0.0 | 0.0 | 0.00 | 0.02 | 0.00 | 99 | 1014.4 |
| 20260904082003 | 69 | 0 | 0.0 | 0.0 | 0.00 | 0.02 | 0.00 | 99 | 1014.3 |
| 20260904081504 | 69 | 0 | 0.0 | 0.0 | 0.00 | 0.02 | 0.00 | 99 | 1014.5 |
| 20260904081003 | 69 | 0 | 0.0 | 0.0 | 0.00 | 0.02 | 0.00 | 99 | 1014.4 |
| 20260904080503 | 69 | 0 | 0.0 | 0.0 | 0.00 | 0.02 | 0.00 | 99 | 1014.3 |
| 20260904080003 | 69 | 0 | 0.0 | 0.0 | 0.00 | 0.02 | 0.00 | 99 | 1014.3 |
| 20260904075504 | 69 | 0 | 0.0 | 0.0 | 0.00 | 0.02 | 0.00 | 99 | 1014.3 |
| 20260904075003 | 69 | 0 | 0.0 | 0.0 | 0.00 | 0.02 | 0.00 | 99 | 1014.3 |
| 20260904074503 | 69 | 0 | 0.0 | 0.0 | 0.00 | 0.02 | 0.00 | 99 | 1014.2 |
| 20260904074024 | 69 | 0 | 0.0 | 0.0 | 0.00 | 0.02 | 0.00 | 99 | 1014.0 |
| 20260904073503 | 69 | 0 | 0.0 | 0.0 | 0.00 | 0.02 | 0.00 | 99 | 1014.0 |
| 20260904073024 | 69 | 0 | 0.0 | 0.0 | 0.00 | 0.02 | 0.00 | 99 | 1014.1 |
| 20260904072524 | 69 | 0 | 0.0 | 0.0 | 0.00 | 0.02 | 0.00 | 99 | 1013.9 |
| 20260904072003 | 69 | 0 | 0.0 | 0.0 | 0.00 | 0.02 | 0.00 | 99 | 1013.9 |
| 20260904071503 | 69 | 0 | 0.0 | 0.0 | 0.00 | 0.02 | 0.00 | 99 | 1013.9 |
| 20260904071003 | 69 | 0 | 0.0 | 0.0 | 0.00 | 0.02 | 0.00 | 99 | 1013.7 |
| 20260904070524 | 69 | 0 | 0.0 | 0.0 | 0.00 | 0.02 | 0.00 | 99 | 1013.9 |
| 20260904070024 | 69 | 0 | 0.0 | 0.0 | 0.00 | 0.02 | 0.00 | 99 | 1013.8 |
| 20260904065503 | 69 | 0 | 0.0 | 0.0 | 0.00 | 0.02 | 0.00 | 99 | 1013.8 |
| 20260904065003 | 69 | 0 | 0.0 | 0.0 | 0.00 | 0.03 | 0.00 | 99 | 1013.7 |
| 20260904064503 | 69 | 0 | 0.0 | 0.0 | 0.00 | 0.03 | 0.00 | 99 | 1013.6 |
| 20260904064003 | 69 | 0 | 0.0 | 0.0 | 0.00 | 0.04 | 0.00 | 99 | 1013.5 |
| 20260904063503 | 69 | 0 | 0.0 | 0.0 | 0.00 | 0.06 | 0.00 | 99 | 1013.5 |
| 20260904063003 | 69 | 0 | 0.0 | 0.0 | 0.00 | 0.07 | 0.00 | 99 | 1013.5 |
| 20260904062503 | 69 | 0 | 0.0 | 0.0 | 0.00 | 0.09 | 0.00 | 99 | 1013.7 |
| 20260904062003 | 69 | 127 | 0.0 | 1.0 | 0.00 | 0.11 | 0.00 | 99 | 1013.7 |
| 20260904061503 | 69 | 127 | 0.0 | 1.0 | 0.00 | 0.12 | 0.00 | 99 | 1013.9 |
| 20260904061003 | 69 | 108 | 0.0 | 3.0 | 0.00 | 0.13 | 0.00 | 99 | 1014.0 |
| 20260904060503 | 69 | 92 | 0.0 | 3.0 | 0.00 | 0.15 | 0.00 | 99 | 1014.0 |
| 20260904060024 | 69 | 46 | 0.0 | 1.0 | 0.00 | 0.15 | 0.00 | 99 | 1013.8 |
| 20260904055503 | 69 | 30 | 0.0 | 1.0 | 0.00 | 0.16 | 0.00 | 99 | 1013.9 |
| 20260904055003 | 69 | 30 | 0.0 | 1.0 | 0.00 | 0.16 | 0.00 | 99 | 1014.0 |
| 20260904054503 | 69 | 30 | 0.0 | 1.0 | 0.00 | 0.16 | 0.00 | 99 | 1014.1 |
| 20260904054003 | 69 | 30 | 1.0 | 4.0 | 0.00 | 0.16 | 0.00 | 99 | 1014.3 |
| 20260904053503 | 69 | 30 | 1.0 | 4.0 | 0.00 | 0.16 | 0.00 | 99 | 1014.3 |
| 20260904053003 | 70 | 30 | 1.0 | 3.0 | 0.00 | 0.16 | 0.00 | 99 | 1014.3 |
| 20260904052503 | 69 | 30 | 1.0 | 3.0 | 0.00 | 0.16 | 0.00 | 99 | 1014.4 |
| 20260904052024 | 70 | 30 | 1.0 | 3.0 | 0.00 | 0.16 | 0.00 | 98 | 1014.5 |
| 20260904051503 | 70 | 40 | 1.0 | 4.0 | 0.00 | 0.16 | 0.00 | 99 | 1014.3 |
| 20260904051003 | 70 | 56 | 1.0 | 4.0 | 0.00 | 0.16 | 0.00 | 98 | 1014.4 |
| 20260904050503 | 70 | 138 | 0.0 | 3.0 | 0.00 | 0.17 | 0.00 | 98 | 1014.3 |
| 20260904050003 | 70 | 171 | 1.0 | 3.0 | 0.00 | 0.18 | 0.00 | 98 | 1014.4 |
| 20260904045503 | 70 | 185 | 1.0 | 3.0 | 0.00 | 0.18 | 0.00 | 98 | 1014.1 |
| 20260904045003 | 70 | 350 | 1.0 | 3.0 | 0.00 | 0.18 | 0.00 | 98 | 1014.0 |
| 20260904044503 | 70 | 350 | 1.0 | 3.0 | 0.00 | 0.18 | 0.00 | 98 | 1014.0 |
| 20260904044003 | 70 | 350 | 0.0 | 3.0 | 0.00 | 0.18 | 0.00 | 98 | 1013.9 |
| 20260904043503 | 70 | 350 | 0.0 | 1.0 | 0.00 | 0.19 | 0.00 | 98 | 1014.0 |
| 20260904043003 | 70 | 350 | 0.0 | 3.0 | 0.00 | 0.19 | 0.00 | 98 | 1014.1 |
| 20260904042503 | 70 | 333 | 1.0 | 6.0 | 0.00 | 0.19 | 0.00 | 98 | 1014.2 |
| 20260904042003 | 70 | 337 | 1.0 | 6.0 | 0.00 | 0.19 | 0.00 | 98 | 1014.4 |
| 20260904041503 | 70 | 144 | 1.0 | 3.0 | 0.00 | 0.19 | 0.00 | 98 | 1014.1 |
| 20260904041003 | 70 | 171 | 1.0 | 4.0 | 0.00 | 0.19 | 0.00 | 98 | 1014.3 |
| 20260904040524 | 70 | 199 | 0.0 | 4.0 | 0.00 | 0.19 | 0.00 | 98 | 1014.5 |
| 20260904040004 | 70 | 0 | 0.0 | 0.0 | 0.00 | 0.19 | 0.00 | 98 | 1014.7 |
| 20260904035526 | 70 | 0 | 0.0 | 0.0 | 0.00 | 0.19 | 0.19 | 98 | 1014.6 |
| 20260904035005 | 70 | 0 | 0.0 | 0.0 | 0.00 | 0.19 | 0.19 | 98 | 1014.6 |
| 20260904034505 | 70 | 0 | 0.0 | 0.0 | 0.00 | 0.19 | 0.19 | 98 | 1014.5 |
| 20260904034005 | 70 | 0 | 0.0 | 0.0 | 0.00 | 0.19 | 0.19 | 98 | 1014.5 |
| 20260904033526 | 70 | 0 | 0.0 | 0.0 | 0.00 | 0.19 | 0.19 | 98 | 1014.6 |
| 20260904033005 | 70 | 0 | 0.0 | 0.0 | 0.00 | 0.19 | 0.19 | 98 | 1014.9 |
| 20260904032505 | 71 | 0 | 0.0 | 0.0 | 0.00 | 0.20 | 0.19 | 98 | 1015.1 |
| 20260904032005 | 71 | 0 | 0.0 | 0.0 | 0.00 | 0.20 | 0.19 | 98 | 1015.2 |
| 20260904031505 | 71 | 0 | 0.0 | 0.0 | 0.00 | 0.21 | 0.19 | 97 | 1015.1 |
| 20260904031026 | 71 | 0 | 0.0 | 0.0 | 0.00 | 0.22 | 0.19 | 97 | 1015.1 |
| 20260904030505 | 71 | 0 | 0.0 | 0.0 | 0.00 | 0.23 | 0.19 | 97 | 1015.0 |
| 20260904030005 | 72 | 0 | 0.0 | 0.0 | 0.00 | 0.23 | 0.19 | 97 | 1015.0 |
| 20260904025505 | 72 | 0 | 0.0 | 0.0 | 0.00 | 0.24 | 0.19 | 97 | 1014.8 |
| 20260904025005 | 72 | 0 | 0.0 | 0.0 | 0.00 | 0.25 | 0.19 | 97 | 1014.6 |
| 20260904024504 | 72 | 0 | 0.0 | 0.0 | 0.00 | 0.28 | 0.19 | 98 | 1014.5 |
| 20260904024004 | 72 | 0 | 0.0 | 0.0 | 0.00 | 0.41 | 0.19 | 98 | 1014.4 |
| 20260904023505 | 72 | 0 | 0.0 | 0.0 | 0.00 | 0.74 | 0.19 | 98 | 1014.5 |
| 20260904023005 | 73 | 0 | 0.0 | 0.0 | 0.00 | 0.93 | 0.19 | 98 | 1014.5 |
| 20260904022505 | 73 | 0 | 0.0 | 0.0 | 0.00 | 1.01 | 0.19 | 98 | 1014.6 |
| 20260904022005 | 73 | 0 | 0.0 | 0.0 | 0.00 | 1.01 | 0.19 | 98 | 1014.8 |
| 20260904021505 | 73 | 0 | 0.0 | 0.0 | 0.00 | 1.01 | 0.19 | 97 | 1014.9 |
| 20260904021005 | 73 | 0 | 0.0 | 0.0 | 0.00 | 1.01 | 0.19 | 98 | 1015.0 |
| 20260904020526 | 73 | 0 | 0.0 | 0.0 | 0.00 | 1.01 | 0.19 | 98 | 1015.2 |
| 20260904020005 | 73 | 0 | 0.0 | 0.0 | 0.00 | 1.01 | 0.19 | 98 | 1015.2 |
| 20260904015504 | 73 | 0 | 0.0 | 0.0 | 0.00 | 1.01 | 0.19 | 97 | 1015.2 |
| 20260904015005 | 73 | 0 | 0.0 | 0.0 | 0.00 | 1.01 | 0.19 | 97 | 1015.1 |
| 20260904014505 | 74 | 0 | 0.0 | 0.0 | 0.00 | 1.01 | 0.19 | 97 | 1015.2 |
| 20260904014005 | 74 | 0 | 0.0 | 0.0 | 0.00 | 1.01 | 0.19 | 98 | 1015.5 |
| 20260904013505 | 74 | 0 | 0.0 | 0.0 | 0.00 | 1.01 | 0.19 | 98 | 1015.5 |
| 20260904013005 | 74 | 0 | 0.0 | 0.0 | 0.00 | 1.01 | 0.19 | 98 | 1015.5 |
| 20260904012504 | 74 | 0 | 0.0 | 0.0 | 0.00 | 1.01 | 0.19 | 97 | 1015.6 |
| 20260904012026 | 74 | 0 | 0.0 | 0.0 | 0.00 | 1.01 | 0.19 | 97 | 1015.7 |
| 20260904011504 | 74 | 0 | 0.0 | 0.0 | 0.00 | 1.01 | 0.19 | 97 | 1015.7 |
| 20260904011025 | 74 | 0 | 0.0 | 0.0 | 0.00 | 1.01 | 0.19 | 97 | 1015.7 |
| 20260904010526 | 74 | 0 | 0.0 | 0.0 | 0.00 | 1.01 | 0.19 | 97 | 1015.7 |
| 20260904010005 | 74 | 0 | 0.0 | 0.0 | 0.00 | 1.01 | 0.19 | 97 | 1015.8 |
| 20260904005504 | 74 | 0 | 0.0 | 0.0 | 0.00 | 1.01 | 0.19 | 97 | 1015.7 |
| 20260904005005 | 74 | 0 | 0.0 | 0.0 | 0.00 | 1.01 | 0.19 | 97 | 1015.4 |
| 20260904004504 | 75 | 0 | 0.0 | 0.0 | 0.00 | 1.01 | 0.19 | 97 | 1015.4 |
| 20260904004005 | 75 | 0 | 0.0 | 0.0 | 0.00 | 1.01 | 0.19 | 97 | 1015.4 |
| 20260904003504 | 75 | 0 | 0.0 | 0.0 | 0.00 | 1.01 | 0.19 | 96 | 1015.4 |
| 20260904003005 | 75 | 0 | 0.0 | 0.0 | 0.00 | 1.01 | 0.19 | 96 | 1015.2 |
| 20260904002504 | 75 | 0 | 0.0 | 0.0 | 0.00 | 1.01 | 0.19 | 96 | 1015.0 |
| 20260904002004 | 75 | 0 | 0.0 | 0.0 | 0.00 | 1.01 | 0.19 | 96 | 1015.1 |
| 20260904001504 | 75 | 0 | 0.0 | 0.0 | 0.00 | 1.01 | 0.19 | 96 | 1014.9 |
| 20260904001026 | 75 | 0 | 0.0 | 0.0 | 0.00 | 1.01 | 0.19 | 96 | 1014.9 |
| 20260904000505 | 75 | 0 | 0.0 | 0.0 | 0.00 | 1.01 | 0.19 | 95 | 1014.7 |
| 20260904000005 | 75 | 99 | 0.0 | 1.0 | 0.00 | 1.01 | 0.19 | 95 | 1015.0 |
| 20260903235504 | 76 | 99 | 1.0 | 3.0 | 0.00 | 1.01 | 0.19 | 94 | 1014.9 |
| 20260903235004 | 76 | 99 | 1.0 | 3.0 | 0.00 | 1.01 | 0.19 | 95 | 1015.0 |
| 20260903234504 | 76 | 99 | 1.0 | 3.0 | 0.00 | 1.01 | 0.19 | 94 | 1015.0 |
| 20260903234005 | 76 | 99 | 0.0 | 3.0 | 0.00 | 1.01 | 0.19 | 94 | 1014.9 |
| 20260903233504 | 76 | 99 | 0.0 | 3.0 | 0.00 | 1.01 | 0.19 | 94 | 1014.8 |
| 20260903233004 | 76 | 99 | 0.0 | 3.0 | 0.00 | 1.01 | 0.19 | 94 | 1014.8 |
| 20260903232504 | 76 | 106 | 0.0 | 3.0 | 0.00 | 1.01 | 0.19 | 94 | 1014.7 |
| 20260903232005 | 76 | 108 | 0.0 | 3.0 | 0.00 | 1.01 | 0.19 | 94 | 1014.7 |
| 20260903231525 | 76 | 167 | 0.0 | 1.0 | 0.00 | 1.01 | 0.19 | 93 | 1014.9 |
| 20260903231004 | 77 | 167 | 0.0 | 1.0 | 0.00 | 1.01 | 0.19 | 93 | 1014.9 |
| 20260903230504 | 77 | 167 | 0.0 | 1.0 | 0.00 | 1.01 | 0.19 | 92 | 1014.8 |
| 20260903230026 | 77 | 0 | 0.0 | 0.0 | 0.00 | 1.01 | 0.19 | 92 | 1014.8 |
| 20260903225504 | 77 | 0 | 0.0 | 0.0 | 0.00 | 1.01 | 0.19 | 92 | 1014.7 |
| 20260903225026 | 77 | 0 | 0.0 | 0.0 | 0.00 | 1.01 | 0.19 | 91 | 1014.7 |
| 20260903224504 | 77 | 0 | 0.0 | 0.0 | 0.00 | 1.01 | 0.19 | 91 | 1014.7 |
| 20260903224004 | 78 | 0 | 0.0 | 0.0 | 0.00 | 1.01 | 0.19 | 90 | 1014.6 |
| 20260903223505 | 78 | 0 | 0.0 | 0.0 | 0.00 | 1.01 | 0.19 | 90 | 1014.5 |
| 20260903223005 | 78 | 0 | 0.0 | 0.0 | 0.00 | 1.01 | 0.19 | 90 | 1014.5 |
| 20260903222504 | 78 | 167 | 0.0 | 1.0 | 0.00 | 1.01 | 0.19 | 90 | 1014.5 |
| 20260903222005 | 78 | 167 | 0.0 | 1.0 | 0.00 | 1.01 | 0.19 | 89 | 1014.1 |
| 20260903221504 | 78 | 0 | 0.0 | 0.0 | 0.00 | 1.01 | 0.19 | 89 | 1014.2 |
| 20260903221025 | 78 | 0 | 0.0 | 0.0 | 0.00 | 1.01 | 0.19 | 89 | 1014.4 |
| 20260903220504 | 78 | 0 | 0.0 | 0.0 | 0.00 | 1.01 | 0.19 | 88 | 1014.4 |
| 20260903220004 | 78 | 0 | 0.0 | 0.0 | 0.00 | 1.01 | 0.19 | 87 | 1014.5 |
| 20260903215504 | 78 | 0 | 0.0 | 0.0 | 0.00 | 1.01 | 0.19 | 89 | 1014.5 |
| 20260903215004 | 79 | 0 | 0.0 | 0.0 | 0.00 | 1.01 | 0.19 | 88 | 1014.5 |
| 20260903214504 | 79 | 0 | 0.0 | 0.0 | 0.00 | 1.01 | 0.19 | 88 | 1014.5 |
| 20260903214004 | 79 | 0 | 0.0 | 0.0 | 0.00 | 1.01 | 0.19 | 88 | 1014.7 |
| 20260903213504 | 79 | 0 | 0.0 | 0.0 | 0.00 | 1.01 | 0.19 | 87 | 1014.7 |
| 20260903213004 | 79 | 0 | 0.0 | 0.0 | 0.00 | 1.01 | 0.19 | 88 | 1014.6 |
| 20260903212504 | 79 | 0 | 0.0 | 0.0 | 0.00 | 1.01 | 0.19 | 87 | 1014.5 |
| 20260903212004 | 80 | 167 | 0.0 | 1.0 | 0.00 | 1.01 | 0.19 | 87 | 1014.5 |
| 20260903211504 | 80 | 167 | 0.0 | 1.0 | 0.00 | 1.01 | 0.19 | 86 | 1014.4 |
| 20260903211004 | 80 | 167 | 0.0 | 1.0 | 0.00 | 1.01 | 0.19 | 86 | 1014.3 |
| 20260903210504 | 80 | 0 | 0.0 | 0.0 | 0.00 | 1.01 | 0.19 | 85 | 1014.4 |
| 20260903210004 | 80 | 0 | 0.0 | 0.0 | 0.00 | 1.01 | 0.19 | 84 | 1014.4 |
| 20260903205504 | 81 | 0 | 0.0 | 0.0 | 0.00 | 1.01 | 0.19 | 85 | 1014.3 |
| 20260903205025 | 81 | 84 | 0.0 | 1.0 | 0.00 | 1.01 | 0.19 | 82 | 1014.2 |
| 20260903204504 | 81 | 101 | 0.0 | 1.0 | 0.00 | 1.01 | 0.19 | 79 | 1014.7 |
| 20260903204025 | 82 | 172 | 0.0 | 4.0 | 0.00 | 1.01 | 0.19 | 81 | 1014.6 |
| 20260903203504 | 83 | 172 | 0.0 | 4.0 | 0.00 | 1.01 | 0.19 | 79 | 1014.7 |
| 20260903203004 | 83 | 165 | 0.0 | 3.0 | 0.00 | 1.01 | 0.19 | 80 | 1014.8 |
| 20260903202504 | 84 | 149 | 0.0 | 4.0 | 0.00 | 1.01 | 0.19 | 80 | 1014.8 |
| 20260903202004 | 84 | 129 | 0.0 | 4.0 | 0.00 | 1.01 | 0.19 | 73 | 1014.8 |
| 20260903201504 | 84 | 147 | 0.0 | 3.0 | 0.00 | 1.01 | 0.19 | 75 | 1014.8 |
| 20260903201004 | 85 | 151 | 1.0 | 3.0 | 0.00 | 1.01 | 0.19 | 73 | 1014.8 |
| 20260903200504 | 85 | 213 | 0.0 | 3.0 | 0.00 | 1.01 | 0.19 | 75 | 1014.8 |
| 20260903200004 | 84 | 245 | 0.0 | 3.0 | 0.00 | 1.01 | 0.19 | 75 | 1014.9 |
| 20260903195504 | 84 | 229 | 0.0 | 6.0 | 0.00 | 1.01 | 0.19 | 76 | 1014.8 |
| 20260903195025 | 84 | 178 | 1.0 | 6.0 | 0.00 | 1.01 | 0.19 | 72 | 1014.8 |
| 20260903194504 | 84 | 157 | 1.0 | 4.0 | 0.00 | 1.01 | 0.19 | 76 | 1014.8 |
| 20260903194004 | 84 | 146 | 1.0 | 4.0 | 0.00 | 1.01 | 0.19 | 73 | 1014.9 |
| 20260903193504 | 84 | 11 | 0.0 | 4.0 | 0.00 | 1.01 | 0.19 | 73 | 1015.0 |
| 20260903193025 | 84 | 358 | 0.0 | 4.0 | 0.00 | 1.01 | 0.19 | 71 | 1015.1 |
| 20260903192525 | 84 | 250 | 0.0 | 3.0 | 0.00 | 1.01 | 0.19 | 75 | 1015.1 |
| 20260903192004 | 84 | 190 | 1.0 | 4.0 | 0.00 | 1.01 | 0.19 | 78 | 1015.1 |
| 20260903191504 | 84 | 189 | 1.0 | 4.0 | 0.00 | 1.01 | 0.19 | 76 | 1015.1 |
| 20260903191004 | 83 | 327 | 1.0 | 4.0 | 0.00 | 1.01 | 0.19 | 76 | 1015.1 |
| 20260903190504 | 82 | 337 | 1.0 | 4.0 | 0.00 | 1.01 | 0.19 | 84 | 1015.1 |
| 20260903190004 | 82 | 314 | 1.0 | 4.0 | 0.00 | 1.01 | 0.19 | 75 | 1015.2 |
| 20260903185504 | 81 | 302 | 1.0 | 3.0 | 0.00 | 1.01 | 0.19 | 83 | 1015.4 |
| 20260903185004 | 81 | 341 | 1.0 | 6.0 | 0.00 | 1.01 | 0.19 | 87 | 1015.5 |
| 20260903184504 | 80 | 302 | 1.0 | 6.0 | 0.00 | 1.01 | 0.19 | 79 | 1015.6 |
| 20260903184004 | 81 | 266 | 0.0 | 3.0 | 0.00 | 1.01 | 0.19 | 86 | 1015.6 |
| 20260903183504 | 82 | 272 | 1.0 | 6.0 | 0.00 | 1.01 | 0.19 | 84 | 1015.6 |
| 20260903183004 | 82 | 344 | 1.0 | 6.0 | 0.00 | 1.01 | 0.19 | 84 | 1015.6 |
| 20260903182504 | 82 | 359 | 1.0 | 4.0 | 0.00 | 1.01 | 0.19 | 82 | 1015.7 |
| 20260903182004 | 82 | 82 | 1.0 | 6.0 | 0.00 | 1.01 | 0.19 | 80 | 1015.8 |
| 20260903181504 | 81 | 147 | 1.0 | 6.0 | 0.00 | 1.01 | 0.19 | 83 | 1015.8 |
| 20260903181025 | 80 | 144 | 1.0 | 4.0 | 0.00 | 1.01 | 0.19 | 80 | 1015.8 |
| 20260903180504 | 80 | 144 | 0.0 | 3.0 | 0.00 | 1.01 | 0.19 | 86 | 1015.8 |
| 20260903180004 | 80 | 142 | 0.0 | 3.0 | 0.00 | 1.01 | 0.19 | 86 | 1015.8 |
| 20260903175504 | 79 | 144 | 0.0 | 3.0 | 0.00 | 1.01 | 0.19 | 85 | 1015.9 |
| 20260903175025 | 79 | 169 | 0.0 | 1.0 | 0.00 | 1.01 | 0.19 | 86 | 1015.9 |
| 20260903174504 | 80 | 177 | 0.0 | 3.0 | 0.00 | 1.01 | 0.19 | 86 | 1016.0 |
| 20260903174004 | 80 | 195 | 0.0 | 3.0 | 0.00 | 1.01 | 0.19 | 84 | 1016.1 |
| 20260903173525 | 80 | 245 | 0.0 | 3.0 | 0.00 | 1.01 | 0.19 | 86 | 1016.1 |
| 20260903173025 | 79 | 53 | 0.0 | 3.0 | 0.00 | 1.01 | 0.19 | 82 | 1015.9 |
| 20260903172504 | 79 | 107 | 1.0 | 3.0 | 0.00 | 1.01 | 0.19 | 83 | 1015.9 |
| 20260903172004 | 79 | 161 | 1.0 | 7.0 | 0.00 | 1.01 | 0.19 | 83 | 1016.0 |
| 20260903171504 | 79 | 162 | 1.0 | 7.0 | 0.00 | 1.01 | 0.19 | 83 | 1016.0 |
| 20260903171025 | 80 | 187 | 0.0 | 3.0 | 0.00 | 1.01 | 0.19 | 82 | 1016.0 |
| 20260903170525 | 80 | 168 | 1.0 | 7.0 | 0.00 | 1.01 | 0.19 | 81 | 1016.1 |
| 20260903170004 | 80 | 158 | 1.0 | 9.0 | 0.00 | 1.01 | 0.19 | 82 | 1016.1 |
| 20260903165504 | 80 | 138 | 1.0 | 4.0 | 0.00 | 1.01 | 0.19 | 82 | 1016.2 |
| 20260903165004 | 80 | 153 | 3.0 | 10.0 | 0.00 | 1.01 | 0.19 | 83 | 1016.2 |
| 20260903164504 | 80 | 162 | 1.0 | 10.0 | 0.00 | 1.01 | 0.19 | 83 | 1016.3 |
| 20260903164004 | 80 | 284 | 1.0 | 4.0 | 0.00 | 1.01 | 0.19 | 85 | 1016.4 |
| 20260903163504 | 79 | 176 | 3.0 | 9.0 | 0.00 | 1.01 | 0.19 | 87 | 1016.4 |
| 20260903163004 | 79 | 156 | 3.0 | 9.0 | 0.00 | 1.01 | 0.19 | 86 | 1016.6 |
| 20260903162504 | 78 | 144 | 1.0 | 9.0 | 0.00 | 1.01 | 0.19 | 85 | 1016.6 |
| 20260903162004 | 78 | 135 | 3.0 | 7.0 | 0.00 | 1.01 | 0.19 | 86 | 1016.6 |
| 20260903161504 | 78 | 131 | 1.0 | 7.0 | 0.00 | 1.01 | 0.19 | 86 | 1016.7 |
| 20260903161025 | 77 | 321 | 1.0 | 4.0 | 0.00 | 1.01 | 0.19 | 90 | 1016.7 |
| 20260903160504 | 76 | 164 | 3.0 | 9.0 | 0.00 | 1.01 | 0.19 | 86 | 1016.9 |
| 20260903160025 | 76 | 159 | 3.0 | 9.0 | 0.00 | 1.01 | 0.19 | 89 | 1017.0 |
| 20260903155504 | 75 | 155 | 1.0 | 6.0 | 0.00 | 1.01 | 0.19 | 90 | 1017.0 |
| 20260903155025 | 75 | 153 | 1.0 | 6.0 | 0.00 | 1.01 | 0.19 | 93 | 1017.0 |
| 20260903154504 | 74 | 149 | 1.0 | 6.0 | 0.00 | 1.01 | 0.19 | 95 | 1017.1 |
| 20260903154004 | 74 | 151 | 1.0 | 7.0 | 0.00 | 1.01 | 0.19 | 95 | 1017.1 |
| 20260903153504 | 73 | 151 | 3.0 | 7.0 | 0.00 | 1.01 | 0.19 | 95 | 1017.1 |
| 20260903153004 | 73 | 153 | 1.0 | 7.0 | 0.00 | 1.01 | 0.19 | 96 | 1017.1 |
| 20260903152525 | 72 | 161 | 1.0 | 7.0 | 0.00 | 1.01 | 0.19 | 98 | 1017.3 |
| 20260903152004 | 72 | 162 | 1.0 | 4.0 | 0.00 | 1.01 | 0.19 | 99 | 1017.2 |
| 20260903151525 | 72 | 159 | 1.0 | 10.0 | 0.00 | 1.01 | 0.19 | 100 | 1017.3 |
| 20260903151004 | 71 | 157 | 3.0 | 10.0 | 0.00 | 1.01 | 0.19 | 100 | 1017.2 |
| 20260903150504 | 71 | 152 | 3.0 | 9.0 | 0.00 | 1.01 | 0.19 | 100 | 1017.3 |
| 20260903150025 | 71 | 152 | 1.0 | 4.0 | 0.00 | 1.01 | 0.19 | 100 | 1017.2 |
| 20260903145504 | 71 | 162 | 1.0 | 7.0 | 0.00 | 1.01 | 0.19 | 100 | 1017.2 |
| 20260903145004 | 70 | 165 | 1.0 | 7.0 | 0.00 | 1.01 | 0.19 | 100 | 1017.2 |
| 20260903144504 | 70 | 159 | 3.0 | 7.0 | 0.00 | 1.01 | 0.19 | 100 | 1017.2 |
| 20260903144004 | 70 | 154 | 3.0 | 10.0 | 0.00 | 1.01 | 0.19 | 100 | 1017.2 |
| 20260903143504 | 70 | 156 | 1.0 | 10.0 | 0.00 | 1.01 | 0.19 | 100 | 1017.4 |
| 20260903143004 | 70 | 164 | 1.0 | 7.0 | 0.00 | 1.01 | 0.19 | 100 | 1017.5 |
| 20260903142504 | 70 | 160 | 1.0 | 7.0 | 0.00 | 1.01 | 0.19 | 100 | 1017.7 |
| 20260903142004 | 70 | 155 | 1.0 | 7.0 | 0.00 | 1.01 | 0.19 | 100 | 1017.6 |
| 20260903141504 | 69 | 149 | 0.0 | 3.0 | 0.00 | 1.01 | 0.19 | 100 | 1017.6 |
| 20260903141004 | 69 | 149 | 0.0 | 3.0 | 0.00 | 1.01 | 0.19 | 100 | 1017.7 |
| 20260903140525 | 69 | 149 | 0.0 | 1.0 | 0.00 | 1.01 | 0.19 | 100 | 1017.8 |
| 20260903140004 | 69 | 149 | 0.0 | 1.0 | 0.00 | 1.01 | 0.19 | 100 | 1017.7 |
| 20260903135504 | 69 | 149 | 0.0 | 3.0 | 0.00 | 1.01 | 0.19 | 100 | 1017.5 |
| 20260903135004 | 69 | 149 | 0.0 | 3.0 | 0.00 | 1.01 | 0.19 | 100 | 1017.5 |
| 20260903134504 | 69 | 151 | 1.0 | 4.0 | 0.00 | 1.01 | 0.19 | 100 | 1017.4 |
| 20260903134004 | 69 | 152 | 0.0 | 4.0 | 0.00 | 1.01 | 0.19 | 100 | 1017.3 |
| 20260903133504 | 68 | 167 | 0.0 | 1.0 | 0.00 | 1.01 | 0.19 | 100 | 1017.3 |
| 20260903133025 | 68 | 166 | 0.0 | 3.0 | 0.00 | 1.01 | 0.19 | 100 | 1017.3 |
| 20260903132504 | 68 | 141 | 0.0 | 4.0 | 0.00 | 1.01 | 0.19 | 100 | 1017.2 |
| 20260903132004 | 68 | 137 | 1.0 | 6.0 | 0.00 | 1.01 | 0.19 | 100 | 1017.2 |
| 20260903131503 | 68 | 154 | 1.0 | 6.0 | 0.00 | 1.01 | 0.19 | 100 | 1017.2 |
| 20260903131025 | 68 | 159 | 0.0 | 6.0 | 0.00 | 1.01 | 0.19 | 100 | 1017.1 |
| 20260903130503 | 68 | 185 | 1.0 | 4.0 | 0.00 | 1.01 | 0.19 | 100 | 1017.1 |
| 20260903130004 | 68 | 188 | 1.0 | 6.0 | 0.00 | 1.01 | 0.19 | 100 | 1017.2 |
| 20260903125504 | 68 | 176 | 1.0 | 6.0 | 0.00 | 1.01 | 0.19 | 100 | 1017.2 |
| 20260903125004 | 68 | 158 | 1.0 | 4.0 | 0.00 | 1.01 | 0.19 | 100 | 1017.2 |
| 20260903124504 | 68 | 157 | 1.0 | 4.0 | 0.00 | 1.01 | 0.19 | 100 | 1017.2 |
| 20260903124004 | 68 | 168 | 1.0 | 4.0 | 0.00 | 1.01 | 0.19 | 100 | 1017.1 |
| 20260903123504 | 68 | 185 | 0.0 | 3.0 | 0.00 | 1.01 | 0.19 | 100 | 1017.2 |
| 20260903123025 | 67 | 185 | 0.0 | 3.0 | 0.00 | 1.01 | 0.19 | 100 | 1017.1 |
| 20260903122503 | 67 | 185 | 0.0 | 1.0 | 0.00 | 1.01 | 0.19 | 100 | 1017.1 |
| 20260903122004 | 67 | 185 | 0.0 | 1.0 | 0.00 | 1.01 | 0.19 | 100 | 1017.1 |
| 20260903121504 | 67 | 185 | 0.0 | 1.0 | 0.00 | 1.01 | 0.19 | 100 | 1017.1 |
| 20260903121004 | 67 | 185 | 0.0 | 1.0 | 0.00 | 1.01 | 0.19 | 100 | 1016.9 |
| 20260903120504 | 67 | 185 | 0.0 | 1.0 | 0.00 | 1.01 | 0.19 | 100 | 1016.9 |
| 20260903120004 | 67 | 185 | 0.0 | 3.0 | 0.00 | 1.01 | 0.19 | 100 | 1016.7 |
| 20260903115504 | 67 | 180 | 1.0 | 6.0 | 0.00 | 1.01 | 0.19 | 100 | 1016.7 |
| 20260903115024 | 67 | 168 | 1.0 | 7.0 | 0.00 | 1.01 | 0.19 | 100 | 1016.7 |
| 20260903114504 | 67 | 169 | 1.0 | 7.0 | 0.00 | 1.01 | 0.19 | 100 | 1016.7 |
| 20260903114004 | 67 | 196 | 1.0 | 3.0 | 0.00 | 1.01 | 0.19 | 100 | 1016.8 |
| 20260903113503 | 67 | 205 | 1.0 | 3.0 | 0.01 | 1.01 | 0.19 | 100 | 1016.7 |
| 20260903113004 | 67 | 180 | 1.0 | 6.0 | 0.01 | 1.01 | 0.19 | 100 | 1016.7 |
| 20260903112524 | 66 | 158 | 1.0 | 6.0 | 0.02 | 1.01 | 0.19 | 100 | 1016.7 |
| 20260903112003 | 66 | 138 | 1.0 | 3.0 | 0.02 | 1.01 | 0.19 | 100 | 1016.4 |
| 20260903111524 | 66 | 143 | 1.0 | 6.0 | 0.02 | 1.01 | 0.19 | 100 | 1016.3 |
| 20260903111003 | 66 | 150 | 1.0 | 6.0 | 0.02 | 1.01 | 0.19 | 100 | 1016.3 |
| 20260903110504 | 66 | 142 | 1.0 | 4.0 | 0.02 | 1.01 | 0.19 | 100 | 1016.2 |
| 20260903110004 | 66 | 153 | 1.0 | 7.0 | 0.02 | 1.01 | 0.19 | 100 | 1016.4 |
| 20260903105525 | 66 | 166 | 3.0 | 10.0 | 0.02 | 1.01 | 0.19 | 100 | 1016.4 |
| 20260903105004 | 66 | 168 | 1.0 | 10.0 | 0.02 | 1.01 | 0.19 | 100 | 1016.3 |
| 20260903104503 | 66 | 178 | 1.0 | 3.0 | 0.02 | 1.01 | 0.19 | 100 | 1016.6 |
| 20260903104004 | 66 | 186 | 1.0 | 3.0 | 0.02 | 1.01 | 0.19 | 100 | 1016.8 |
| 20260903103524 | 66 | 207 | 1.0 | 3.0 | 0.01 | 1.00 | 0.18 | 100 | 1016.8 |
| 20260903103004 | 66 | 242 | 1.0 | 4.0 | 0.01 | 1.00 | 0.18 | 100 | 1017.3 |
| 20260903102524 | 66 | 220 | 3.0 | 7.0 | 0.00 | 0.99 | 0.17 | 100 | 1017.3 |
| 20260903102003 | 66 | 200 | 3.0 | 7.0 | 0.00 | 0.99 | 0.17 | 100 | 1016.7 |
| 20260903101504 | 66 | 194 | 3.0 | 7.0 | 0.00 | 0.99 | 0.17 | 100 | 1016.9 |
| 20260903101024 | 66 | 205 | 3.0 | 7.0 | 0.00 | 0.99 | 0.17 | 100 | 1017.2 |
| 20260903100503 | 66 | 218 | 3.0 | 7.0 | 0.00 | 0.99 | 0.17 | 100 | 1017.6 |
| 20260903100004 | 66 | 220 | 3.0 | 7.0 | 0.00 | 0.99 | 0.17 | 100 | 1017.5 |
| 20260903095503 | 66 | 209 | 3.0 | 6.0 | 0.00 | 0.99 | 0.17 | 100 | 1017.5 |
| 20260903095004 | 66 | 191 | 1.0 | 6.0 | 0.00 | 0.99 | 0.17 | 100 | 1017.2 |
| 20260903094503 | 66 | 195 | 1.0 | 3.0 | 0.00 | 0.99 | 0.17 | 100 | 1017.1 |
| 20260903094024 | 66 | 217 | 1.0 | 3.0 | 0.00 | 0.99 | 0.17 | 100 | 1017.5 |
| 20260903093503 | 66 | 214 | 1.0 | 4.0 | 0.00 | 0.99 | 0.17 | 100 | 1017.4 |
| 20260903093025 | 66 | 209 | 1.0 | 4.0 | 0.00 | 0.99 | 0.17 | 100 | 1017.2 |
| 20260903092503 | 66 | 204 | 1.0 | 6.0 | 0.00 | 0.99 | 0.17 | 100 | 1017.2 |
| 20260903092003 | 66 | 198 | 1.0 | 6.0 | 0.00 | 0.99 | 0.17 | 100 | 1017.2 |
| 20260903091524 | 66 | 202 | 1.0 | 4.0 | 0.00 | 0.99 | 0.17 | 100 | 1017.4 |
| 20260903091003 | 66 | 202 | 1.0 | 3.0 | 0.00 | 0.99 | 0.17 | 100 | 1017.6 |
| 20260903090524 | 65 | 196 | 1.0 | 3.0 | 0.00 | 0.99 | 0.17 | 100 | 1017.5 |
| 20260903090004 | 65 | 185 | 1.0 | 4.0 | 0.00 | 0.99 | 0.17 | 100 | 1017.5 |
| 20260903085503 | 65 | 182 | 1.0 | 6.0 | 0.00 | 0.99 | 0.17 | 100 | 1017.2 |
| 20260903085003 | 65 | 189 | 1.0 | 6.0 | 0.00 | 0.99 | 0.17 | 100 | 1017.0 |
| 20260903084503 | 65 | 178 | 1.0 | 9.0 | 0.00 | 0.99 | 0.17 | 100 | 1016.8 |
| 20260903084004 | 65 | 169 | 1.0 | 9.0 | 0.00 | 0.99 | 0.17 | 100 | 1016.8 |